EW9051 Weather Reports


Display with metric or nautical units.
time (UTC)temp
F
wind
direction
speed
MPH
gust
MPH
rain 1hr
in
rain 24hr
in
rain mn
in
humidity
%
barometer
mb
20260505051603 45 346 2.0 5.0 0.00 0.00 0.00 57 1008.5
20260505051103 45 347 3.0 5.0 0.00 0.00 0.00 57 1008.5
20260505050603 45 348 1.0 3.0 0.00 0.00 0.00 57 1008.5
20260505050103 45 344 2.0 3.0 0.00 0.00 0.00 57 1008.5
20260505041603 47 346 3.0 6.0 0.00 0.00 0.00 55 1008.5
20260505041103 47 338 3.0 5.0 0.00 0.00 0.00 54 1008.5
20260505040603 47 333 2.0 3.0 0.00 0.00 0.00 54 1008.5
20260505035603 48 332 2.0 6.0 0.00 0.00 0.00 53 1008.5
20260505035103 48 331 1.0 3.0 0.00 0.00 0.00 53 1008.5
20260505034603 48 329 2.0 3.0 0.00 0.00 0.00 52 1008.5
20260505034103 48 329 2.0 5.0 0.00 0.00 0.00 52 1008.5
20260505033603 48 337 3.0 5.0 0.00 0.00 0.00 51 1008.5
20260505033103 48 338 2.0 3.0 0.00 0.00 0.00 51 1008.5
20260505032603 48 336 3.0 5.0 0.00 0.00 0.00 51 1008.5
20260505032103 49 328 3.0 5.0 0.00 0.00 0.00 51 1008.5
20260505031603 49 316 2.0 5.0 0.00 0.00 0.00 51 1008.5
20260505031103 49 330 3.0 6.0 0.00 0.00 0.00 51 1008.5
20260505030603 49 332 5.0 8.0 0.00 0.00 0.00 50 1008.5
20260505025603 49 325 3.0 8.0 0.00 0.00 0.00 50 1007.8
20260505025103 49 336 2.0 8.0 0.00 0.00 0.00 50 1007.8
20260505024603 49 309 3.0 6.0 0.00 0.00 0.00 50 1007.8
20260505024103 49 306 2.0 3.0 0.00 0.00 0.00 51 1007.8
20260505023603 50 328 3.0 5.0 0.00 0.00 0.00 50 1007.8
20260505023103 50 332 5.0 8.0 0.00 0.00 0.00 50 1007.8
20260505022603 50 327 3.0 8.0 0.00 0.00 0.00 50 1007.8
20260505022103 50 330 4.0 8.0 0.00 0.00 0.00 50 1007.8
20260505021603 50 333 5.0 10.0 0.00 0.00 0.00 49 1007.8
20260505021103 50 322 6.0 10.0 0.00 0.00 0.00 49 1007.8
20260505020604 50 325 6.0 10.0 0.00 0.00 0.00 49 1007.8
20260505015603 50 324 6.0 12.0 0.00 0.00 0.00 49 1007.1
20260505014603 51 324 8.0 12.0 0.00 0.00 0.00 49 1007.1
20260505014103 51 326 10.0 15.0 0.00 0.00 0.00 48 1007.1
20260505013603 51 327 11.0 17.0 0.00 0.00 0.00 48 1007.1
20260505012603 51 324 10.0 16.0 0.00 0.00 0.00 49 1007.1
20260505012103 51 322 13.0 20.0 0.00 0.00 0.00 48 1007.1
20260505011603 51 328 12.0 17.0 0.00 0.00 0.00 48 1007.1
20260505010603 52 316 11.0 20.0 0.00 0.00 0.00 48 1007.1
20260505010103 52 315 12.0 20.0 0.00 0.00 0.00 48 1006.1
20260505005603 52 317 14.0 23.0 0.00 0.00 0.00 48 1006.1
20260505005104 52 307 14.0 21.0 0.00 0.00 0.00 48 1006.1
20260505004603 52 307 11.0 23.0 0.00 0.00 0.00 48 1006.1
20260505003603 52 321 15.0 28.0 0.00 0.00 0.00 49 1006.1
20260505003103 52 316 15.0 21.0 0.00 0.00 0.00 49 1006.1
20260505002603 53 319 17.0 23.0 0.00 0.00 0.00 50 1006.1
20260505002103 53 332 18.0 26.0 0.00 0.00 0.00 49 1006.1
20260505001103 54 342 16.0 23.0 0.00 0.00 0.00 50 1006.1
20260505000603 54 332 12.0 18.0 0.00 0.00 0.00 50 1006.1
20260504235603 55 326 11.0 21.0 0.00 0.00 0.00 46 1005.4
20260504235103 55 315 17.0 22.0 0.00 0.00 0.00 45 1005.4
20260504234603 55 330 13.0 21.0 0.00 0.00 0.00 46 1005.4
20260504234103 55 319 15.0 26.0 0.00 0.00 0.00 45 1005.4
20260504233603 56 336 14.0 21.0 0.00 0.00 0.00 45 1005.4
20260504233103 56 323 13.0 22.0 0.00 0.00 0.00 46 1005.4
20260504232603 55 316 12.0 24.0 0.00 0.00 0.00 45 1005.4
20260504232103 56 333 16.0 26.0 0.00 0.00 0.00 44 1005.4
20260504231103 56 312 17.0 24.0 0.00 0.00 0.00 44 1005.4
20260504230603 56 311 15.0 22.0 0.00 0.00 0.00 44 1005.4
20260504230103 56 304 14.0 25.0 0.00 0.00 0.00 44 1005.4
20260504225603 56 318 14.0 20.0 0.00 0.00 0.00 44 1005.4
20260504222603 57 306 13.0 23.0 0.00 0.00 0.00 42 1005.4
20260504222103 57 303 9.0 18.0 0.00 0.00 0.00 42 1005.4
20260504221603 57 314 14.0 23.0 0.00 0.00 0.00 41 1005.4
20260504221103 57 320 15.0 23.0 0.00 0.00 0.00 42 1005.4
20260504220603 58 312 16.0 23.0 0.00 0.00 0.00 42 1005.4
20260504215103 59 320 13.0 26.0 0.00 0.00 0.00 44 1004.1
20260504214603 59 322 12.0 20.0 0.00 0.00 0.00 45 1004.1
20260504214103 58 306 14.0 21.0 0.00 0.00 0.00 44 1004.1
20260504213603 59 304 14.0 24.0 0.00 0.00 0.00 43 1004.1
20260504213103 59 311 13.0 22.0 0.00 0.00 0.00 42 1004.1
20260504212603 59 314 16.0 26.0 0.00 0.00 0.00 44 1004.1
20260504212103 59 327 14.0 24.0 0.00 0.00 0.00 42 1004.1
20260504211103 60 317 17.0 26.0 0.00 0.00 0.00 41 1004.1
20260504210603 60 338 15.0 25.0 0.00 0.00 0.00 41 1004.1
20260504205603 61 313 13.0 26.0 0.00 0.00 0.00 39 1003.7
20260504205103 61 317 16.0 30.0 0.00 0.00 0.00 40 1003.7
20260504204603 61 309 18.0 26.0 0.00 0.00 0.00 39 1003.7
20260504204103 62 321 12.0 25.0 0.00 0.00 0.00 39 1003.7
20260504203604 61 314 14.0 20.0 0.00 0.00 0.00 38 1003.7
20260504203104 62 320 14.0 24.0 0.00 0.00 0.00 38 1003.7
20260504202603 62 314 17.0 24.0 0.00 0.00 0.00 37 1003.7
20260504202104 62 320 18.0 26.0 0.00 0.00 0.00 37 1003.7
20260504201603 62 320 17.0 25.0 0.00 0.00 0.00 36 1003.7
20260504200603 62 321 17.0 28.0 0.00 0.00 0.00 35 1003.7
20260504200103 61 339 18.0 28.0 0.00 0.00 0.00 34 1003.4
20260504195603 62 313 16.0 31.0 0.00 0.00 0.00 34 1003.4
20260504195103 63 322 18.0 28.0 0.00 0.00 0.00 34 1003.4
20260504194603 64 320 16.0 25.0 0.00 0.00 0.00 34 1003.4
20260504194103 64 297 16.0 26.0 0.00 0.00 0.00 36 1003.4
20260504193603 64 324 13.0 26.0 0.00 0.00 0.00 38 1003.4
20260504193103 64 325 14.0 20.0 0.00 0.00 0.00 39 1003.4
20260504192603 63 303 12.0 22.0 0.00 0.00 0.00 40 1003.4
20260504192103 63 319 20.0 30.0 0.00 0.00 0.00 39 1003.4
20260504191603 63 321 14.0 22.0 0.00 0.00 0.00 39 1003.4
20260504190603 63 323 17.0 26.0 0.00 0.00 0.00 39 1003.4
20260504185603 63 338 16.0 24.0 0.00 0.00 0.00 38 1002.7
20260504185103 63 335 17.0 25.0 0.00 0.00 0.00 38 1002.7
20260504184603 64 289 13.0 23.0 0.00 0.00 0.00 37 1002.7
20260504184103 64 306 20.0 28.0 0.00 0.00 0.00 36 1002.7
20260504183103 64 324 16.0 26.0 0.00 0.00 0.00 36 1002.7
20260504182603 64 308 17.0 24.0 0.00 0.00 0.00 36 1002.7
20260504182103 64 335 17.0 25.0 0.00 0.00 0.00 36 1002.7
20260504181603 64 347 14.0 21.0 0.00 0.00 0.00 39 1002.7
20260504181103 64 323 14.0 21.0 0.00 0.00 0.00 38 1002.7
20260504180604 64 334 12.0 24.0 0.00 0.00 0.00 37 1002.7
20260504175603 64 321 17.0 26.0 0.00 0.00 0.00 39 1002.4
20260504175103 64 313 10.0 20.0 0.00 0.00 0.00 41 1002.4
20260504174603 63 330 12.0 18.0 0.00 0.00 0.00 41 1002.4
20260504174102 63 334 13.0 20.0 0.00 0.00 0.00 41 1002.4
20260504173603 63 328 16.0 22.0 0.00 0.00 0.00 40 1002.4
20260504173103 63 310 14.0 23.0 0.00 0.00 0.00 40 1002.4
20260504172603 63 327 10.0 16.0 0.00 0.00 0.00 42 1002.4
20260504172103 63 316 14.0 20.0 0.00 0.00 0.00 41 1002.4
20260504171103 63 347 12.0 18.0 0.00 0.00 0.00 40 1002.4
20260504170603 63 340 12.0 22.0 0.00 0.00 0.00 40 1002.4
20260504151103 61 9 13.0 22.0 0.00 0.00 0.00 50 1001.0
20260504150603 61 352 12.0 20.0 0.00 0.00 0.00 52 1001.0
20260504140603 60 321 13.0 24.0 0.00 0.00 0.00 56 1001.0
20260504130603 60 259 4.0 10.0 0.00 0.00 0.00 54 1000.0
20260504120103 56 216 2.0 8.0 0.00 0.00 0.00 58 1000.7
20260504110604 54 216 1.0 6.0 0.00 0.00 0.00 60 1000.7
20260504100603 54 202 3.0 6.0 0.00 0.00 0.00 60 1001.4
20260504100103 54 207 2.0 6.0 0.00 0.00 0.00 59 1001.7
20260504081103 55 195 2.0 8.0 0.00 0.00 0.00 57 1002.7
20260504080603 55 186 3.0 5.0 0.00 0.00 0.00 57 1002.7